Weather History for PAIK - March, 2013

Change the Weather History Date:

Sunday, March 10, 2013

  Actual Average (PASK) Record (PASK)
Temperature  
Mean Temperature 11 °F -  
Max Temperature -5 °F 4 °F 23 °F (2005)
Min Temperature -4 °F -4 °F -41 °F (1999)
Degree Days  
Heating Degree Days 54    
Moisture  
Dew Point 5 °F    
Average Humidity 82    
Maximum Humidity 92    
Minimum Humidity 62    
Precipitation  
Precipitation 0.00 in - - ()
Sea Level Pressure  
Sea Level Pressure 30.38 in    
Wind  
Wind Speed 4 mph (SSW)    
Max Wind Speed 10 mph    
Max Gust Speed -    
Visibility 10 miles    
Events Snow    
Averages and records for this station are not official NWS values.
T = Trace of Precipitation, MM = Missing Value Source: NWS Daily Summary

Daily Weather History Graph

Daily Weather History Graph

Search for Another Location

Airport or City:

Trip Planner

Search our weather history database for the weather conditions in past years. The results will help you decide how hot, cold, wet, or windy it might be!

Date:

Astronomy

Mar. 10, 2013 Rise Set
Actual Time 9:19 AM AKDT 8:25 PM AKDT
Civil Twilight 8:26 AM AKDT 9:18 PM AKDT
Nautical Twilight 7:24 AM AKDT 10:21 PM AKDT
Astronomical Twilight 6:15 AM AKDT 11:31 PM AKDT
Moon 8:37 AM AKDT (3/10) 7:47 PM AKDT (3/10)
Length of Visible Light 12h 52m
Length of Day
11h 06m
Waning Crescent, 1% of the Moon is Illuminated
Mar 10
Waning Crescent
Mar 11
New
Mar 19
First Quarter
Mar 27
Full
Apr 2
Last Quarter

Hourly Weather History & Observations

Time (AKDT) Temp. Windchill Dew Point Humidity Pressure Visibility Wind Dir Wind Speed Gust Speed Precip Events Conditions
12:01 AM 10.9 °F 2.9 °F 8.1 °F 88% 30.12 in 10.0 mi East 4.6 mph - N/A   Mostly Cloudy
1:01 AM 6.1 °F -0.9 °F 3.9 °F 91% 30.14 in 10.0 mi ENE 3.5 mph - N/A   Mostly Cloudy
3:01 AM 5.0 °F -6.9 °F 3.0 °F 92% 30.15 in 10.0 mi ENE 6.9 mph - 0.00 in Snow Light Snow
4:01 AM 6.1 °F - 3.9 °F 91% 30.17 in 9.0 mi Calm Calm - 0.00 in Snow Light Snow
5:01 AM 8.1 °F -3.2 °F 5.0 °F 87% 30.18 in 9.0 mi North 6.9 mph - 0.00 in Snow Light Snow
6:01 AM 9.0 °F -3.2 °F 6.1 °F 88% 30.19 in 10.0 mi NNW 8.1 mph - 0.00 in   Overcast
7:01 AM 10.9 °F 2.9 °F 8.1 °F 88% 30.22 in 10.0 mi ENE 4.6 mph - N/A   Overcast
8:01 AM 9.0 °F - 6.1 °F 88% 30.25 in 10.0 mi Calm Calm - N/A   Overcast
9:01 AM 7.0 °F - 3.9 °F 87% 30.27 in 10.0 mi Calm Calm - N/A   Overcast
10:01 AM 8.1 °F -3.2 °F 5.0 °F 87% 30.29 in 10.0 mi North 6.9 mph - 0.00 in   Mostly Cloudy
11:01 AM 10.9 °F - 7.0 °F 84% 30.32 in 10.0 mi Calm Calm - N/A   Partly Cloudy
12:01 PM 12.0 °F 5.9 °F 6.1 °F 77% 30.35 in 10.0 mi SSW 3.5 mph - N/A   Partly Cloudy
1:01 PM 12.9 °F - 9.0 °F 84% 30.38 in 10.0 mi Calm Calm - 0.00 in   Overcast
2:01 PM 19.9 °F - 10.0 °F 65% 30.41 in 10.0 mi Calm Calm - N/A   Partly Cloudy
3:01 PM 18.0 °F - 10.0 °F 71% 30.45 in 10.0 mi Calm Calm - N/A   Clear
4:01 PM 21.9 °F 17.2 °F 12.9 °F 68% 30.46 in 10.0 mi NNW 3.5 mph - N/A   Overcast
5:01 PM 24.1 °F 19.7 °F 12.9 °F 62% 30.48 in 10.0 mi SSW 3.5 mph - N/A   Partly Cloudy
6:01 PM 17.1 °F 7.6 °F 10.9 °F 77% 30.51 in 10.0 mi SSW 6.9 mph - N/A   Partly Cloudy
7:01 PM 9.0 °F -3.2 °F 3.9 °F 80% 30.53 in 10.0 mi SSW 8.1 mph - N/A   Partly Cloudy
8:01 PM 6.1 °F -7.8 °F 1.0 °F 80% 30.57 in 10.0 mi SW 9.2 mph - N/A   Partly Cloudy
9:01 PM 3.0 °F -11.5 °F -0.9 °F 84% 30.61 in 10.0 mi SSW 9.2 mph - N/A   Overcast
10:01 PM 1.0 °F -14.9 °F -2.9 °F 83% 30.64 in 10.0 mi SSW 10.4 mph - N/A   Clear
11:01 PM -2.0 °F -17.7 °F -6.0 °F 83% 30.67 in 10.0 mi SSW 9.2 mph - N/A   Clear
12:01 AM -4.0 °F -20.2 °F -7.1 °F 87% 30.70 in 10.0 mi SSW 9.2 mph - N/A   Clear